Location: Unspecified
(50.7693°N, 0.0000°E)
Time: 04:46:03
(UTC+00:00)

SR - Visible Passes

Search period start: 26 June 2019 00:00
Search period end: 06 July 2019 00:00
Orbit: 582 x 874 km, 66.7° (Epoch: 25 June)

Date Brightness Start Highest point End Pass type
(mag) Time Alt. Az. Time Alt. Az. Time Alt. Az.
26 Jun ? 01:36:58 10° SE 01:38:57 13° ESE 01:40:58 10° ENE visible
27 Jun ? 02:26:49 11° SSW 02:30:42 47° ESE 02:34:56 10° NE visible
28 Jun ? 01:38:29 13° SSE 01:41:20 24° ESE 01:44:52 10° ENE visible
29 Jun ? 00:50:23 10° SE 00:52:08 12° ESE 00:53:54 10° E visible
29 Jun ? 02:29:31 13° SW 02:33:22 88° ESE 02:37:49 10° NE visible
30 Jun ? 01:41:07 19° S 01:43:51 45° ESE 01:48:02 10° NE visible
01 Jul ? 00:52:41 18° SSE 00:54:30 23° ESE 00:57:57 10° ENE visible
01 Jul ? 02:32:05 10° SW 02:36:10 53° NW 02:40:33 10° NNE visible
02 Jul ? 00:04:13 11° ESE 00:05:18 12° ESE 00:06:46 10° E visible
02 Jul ? 01:43:36 20° SSW 01:46:29 83° SE 01:50:57 10° NE visible
03 Jul ? 00:55:06 26° S 00:56:59 42° ESE 01:01:09 10° NE visible
03 Jul ? 02:35:12 10° WSW 02:39:07 33° NW 02:43:14 10° NNE visible
04 Jul ? 00:06:33 20° SE 00:07:39 22° ESE 00:11:00 10° ENE visible
04 Jul ? 01:45:56 16° WSW 01:49:17 56° NW 01:53:43 10° NNE visible
04 Jul ? 23:17:59 11° ESE 23:18:28 11° ESE 23:19:34 10° E visible
05 Jul ? 00:57:22 27° SSW 00:59:36 79° SE 01:04:05 10° NE visible
05 Jul ? 02:38:43 10° W 02:42:12 23° NNW 02:45:51 10° NNE visible
